Home   Weather   Stockport   Past weeks

Flag for United Kingdom Past Weather in Stockport, England, United Kingdom — Yesterday and Last 2 Weeks

Now
59 °F

Partly sunny.


Feels Like: 57 °F
Forecast: 53 / 64 °F
Wind: 10 mph from South

Location: Manchester Airport

Current Time: Sep 28, 2016 at 9:45:23 AM

Latest Report: Sep 28, 2016 at 9:20 AM


Visibility: N/A

Pressure: 30.18 "Hg

Humidity: 82%

Dew Point: 54 °F

Location of StockportLocation

Past Weather in Stockport — Graph

°F

Stockport Temperature Yesterday

Maximum temperature yesterday: 66 °F (at 2:20 PM)
Minimum temperature yesterday: 55 °F (at 12:20 AM)
Average temperature yesterday: 59 °F

High & Low Weather Summary for the Past Weeks

 TemperatureHumidityPressure
High79 °F (Sep 14, 2:50 PM)100% (Sep 13, 6:20 PM)30.24 "Hg (Sep 13, 6:20 PM)
Low45 °F (Sep 18, 5:50 AM)52% (Sep 22, 3:20 PM)29.68 "Hg (Sep 25, 1:50 AM)
Average59 °F82%30.03 "Hg
* Reported Sep 13 8:20 AM — Sep 28 8:20 AM, Stockport, Weather by CustomWeather, © 2016

Note: Actual official high and low records may vary slightly from our data, if they occured in-between our weather recording intervals... More about our weather records

Advertising

Stockport Weather History for the Previous 24 Hours

Scroll right to see more
 ConditionsComfort  
Time TempWeatherWind HumidityBarometerVisibility
8:20 AM
Wed, Sep 28
57 °FPartly sunny.9 mph82%30.15 "HgN/A
7:50 AM57 °FBroken clouds.9 mph82%30.15 "HgN/A
7:20 AM57 °FPartly sunny.7 mph82%30.15 "HgN/A
6:50 AM57 °FPartly cloudy.9 mph82%30.15 "HgN/A
6:20 AM55 °FPassing clouds.7 mph88%30.15 "HgN/A
5:50 AM55 °FPassing clouds.9 mph88%30.15 "HgN/A
5:20 AM55 °FClear.12 mph88%30.15 "Hg10 mi
4:50 AM55 °FClear.10 mph88%30.15 "Hg10 mi
4:20 AM55 °FClear.8 mph88%30.15 "Hg10 mi
3:50 AM55 °FClear.8 mph88%30.15 "Hg10 mi
3:20 AM55 °FClear.9 mph88%30.15 "Hg10 mi
2:50 AM54 °FClear.9 mph94%30.15 "Hg10 mi
2:20 AM54 °FClear.8 mph88%30.15 "Hg10 mi
1:50 AM54 °FClear.7 mph88%30.15 "Hg10 mi
1:20 AM55 °FCool.7 mph82%30.15 "HgN/A
12:50 AM55 °FClear.10 mph88%30.15 "Hg10 mi
12:20 AM57 °FClear.9 mph82%30.15 "Hg10 mi
11:50 PM
Tue, Sep 27
57 °FClear.12 mph82%30.15 "Hg10 mi
11:20 PM57 °FClear.12 mph88%30.15 "Hg10 mi
10:50 PM57 °FClear.12 mph82%30.15 "Hg10 mi
10:20 PM57 °FClear.12 mph88%30.15 "Hg10 mi
9:50 PM57 °FClear.9 mph88%30.15 "Hg10 mi
9:20 PM57 °FClear.8 mph88%30.15 "Hg10 mi
8:50 PM57 °FClear.7 mph88%30.15 "Hg10 mi
8:20 PM57 °FClear.6 mph88%30.15 "Hg10 mi
7:50 PM57 °FClear.5 mph88%30.15 "Hg10 mi
7:20 PM57 °FClear.5 mph88%30.15 "Hg10 mi
6:50 PM59 °FPassing clouds.5 mph77%30.15 "HgN/A
6:20 PM59 °FPassing clouds.5 mph77%30.15 "HgN/A
5:50 PM61 °FPassing clouds.8 mph72%30.15 "HgN/A
5:20 PM63 °FPassing clouds.12 mph68%30.12 "HgN/A
4:50 PM63 °FPassing clouds.13 mph73%30.12 "HgN/A
4:20 PM64 °FScattered clouds.13 mph73%30.12 "HgN/A
3:50 PM63 °FPartly sunny.12 mph83%30.12 "HgN/A
3:20 PM64 °FPartly sunny.13 mph83%30.09 "HgN/A
2:50 PM64 °FScattered clouds.12 mph88%30.09 "HgN/A
2:20 PM66 °FBroken clouds.10 mph83%30.07 "HgN/A
1:50 PM64 °FBroken clouds.8 mph94%30.07 "HgN/A
1:20 PM63 °FLight rain. Cloudy.12 mph94%30.07 "Hg5 mi
12:50 PM64 °FBroken clouds.14 mph83%30.07 "HgN/A
12:20 PM63 °FBroken clouds.14 mph88%30.04 "HgN/A
11:50 AM63 °FBroken clouds.16 mph88%30.04 "HgN/A
11:20 AM63 °FScattered clouds.16 mph88%30.04 "HgN/A
10:50 AM61 °FScattered clouds.14 mph88%30.04 "HgN/A
10:20 AM59 °FBroken clouds.15 mph94%30.04 "HgN/A
9:50 AM59 °FBroken clouds.15 mph88%30.04 "HgN/A
9:20 AM59 °FBroken clouds.14 mph88%30.01 "HgN/A
Weather by CustomWeather, © 2016

See weather overviewHow to use our weather pages